#timestamp,LO_Frequency,Hit,StdDev 
1545451215.8,286047002.7,N
1545451235.7,286046999.8,N
1545451255.5,286047000.0,N
1545451275.3,286047000.0,N
1545451295.2,286047001.4,N
1545451315.0,286047001.4,N
1545451315.9,286047001.4,N
1545451335.7,286047002.5,N
1545451355.6,286047000.2,N
1545451375.4,286047000.3,N
1545451395.3,286047000.9,N
1545451415.1,286047000.9,N
1545451416.0,286047000.9,N
1545451435.8,286047002.3,N
1545451455.7,286046999.7,N
1545451475.5,286047000.1,N
1545451495.3,286047002.8,N
1545451515.2,286047000.6,N
1545451535.0,286046998.6,N
1545451535.9,286046998.6,N
1545451555.8,286046998.6,N
1545451575.6,286046998.8,N
1545451595.4,286046998.6,N
1545451615.3,286046999.9,N
1545451635.1,286047000.8,N
1545451636.0,286047000.8,N
1545451655.8,286047001.0,N
1545451675.7,286047000.2,N
1545451695.5,286047000.3,N
1545451715.3,286047000.6,N
1545451735.2,286046999.8,N
1545451755.0,286046998.1,N
1545451755.9,286046998.1,N
1545451775.8,286046998.5,N
1545451795.6,286047000.9,N
1545451815.4,286047001.0,N
1545451835.3,286047000.1,N
1545451855.1,286046999.9,N
1545451875.8,286047002.7,N
1545451895.7,286047002.5,N
1545451915.5,286047001.6,N
1545451935.4,286047000.4,N
1545451955.2,286047002.8,N
1545451975.0,286047001.3,N
1545451975.9,286047001.3,N
1545451995.8,286046999.7,N
1545452015.6,286047001.9,N
1545452035.4,286047002.5,N
1545452055.3,286047002.6,N
1545452075.1,286047004.4,Y
1545452095.9,286047002.4,P
1545452115.7,286047001.6,N
1545452135.5,286047002.7,P
1545452155.4,286047002.3,N
1545452175.2,286047002.5,Y
1545452195.0,286046998.3,P
1545452196.0,286046998.3,N
1545452215.8,286046998.5,N
1545452235.6,286046998.3,N
1545452255.5,286047000.0,N
1545452275.3,286047002.3,N
1545452295.1,286047002.3,N
1545452315.9,286047000.5,N
1545452335.7,286047000.4,N
1545452355.5,286047001.1,N
1545452375.4,286047000.6,N
1545452395.2,286047001.0,N
1545452415.1,286047000.5,N
1545452416.0,286047000.5,N
1545452435.8,286047000.6,N
1545452455.6,286047001.9,N
1545452475.5,286047002.1,N
1545452495.3,286047004.2,Y
1545452515.1,286047002.3,P
1545452535.9,286047002.4,N
1545452555.7,286047002.6,N
1545452575.6,286047002.8,Y
1545452595.4,286046998.5,P
1545452615.2,286046998.4,N
1545452635.1,286046998.3,N
1545452636.0,286046998.3,N
1545452655.8,286046998.8,N
1545452675.6,286046996.9,N
1545452695.5,286046997.1,N
1545452715.3,286046996.7,N
1545452735.2,286046996.5,N
1545452755.9,286046997.0,N
1545452775.7,286046996.7,N
1545452795.6,286046997.6,N
1545452815.4,286046997.2,N
1545452835.2,286046999.4,N
1545452855.1,286046999.6,N
1545452856.0,286046999.6,N
1545452875.8,286046997.2,N
1545452895.7,286046997.6,N
1545452915.5,286046999.2,N
1545452935.3,286046999.2,N
1545452955.2,286046999.1,N
1545452975.0,286046997.0,N
1545452975.9,286046997.0,N
1545452995.7,286046996.5,N
1545453015.6,286046997.8,N
1545453035.4,286046994.9,Y
1545453055.3,286046996.9,P
1545453075.1,286046995.3,P
1545453076.0,286046995.3,P
1545453095.8,286046997.5,N
1545453115.7,286046996.9,N
1545453135.5,286046996.9,Y
1545453155.3,286046999.8,P
1545453175.2,286047002.2,N
1545453195.0,286047001.4,N
1545453195.9,286047001.4,N
1545453215.8,286047002.1,N
1545453235.6,286047004.2,N
1545453255.4,286047004.0,N
1545453275.3,286047003.4,N
1545453295.1,286047006.8,Y
1545453315.9,286047005.8,P
1545453335.7,286047003.8,N
1545453355.5,286047003.6,N
1545453375.4,286047004.1,N
1545453395.2,286047003.1,N
1545453415.0,286047004.4,Y
1545453415.9,286047004.4,P
1545453435.8,286046999.3,N
1545453455.6,286046997.7,N
1545453475.5,286046994.9,N
1545453495.3,286046994.9,N
1545453515.1,286046997.9,N
1545453535.9,286046997.3,N
1545453555.7,286046996.5,N
1545453575.5,286046998.6,N
1545453595.4,286047000.5,N
1545453615.2,286046998.5,N
1545453635.0,286046998.6,N
1545453635.9,286046998.6,N
1545453655.8,286046998.4,N
1545453675.6,286046996.7,N
1545453695.5,286047011.9,Y
1545453715.3,286046998.7,P
1545453735.1,286046998.1,P
1545453755.9,286047000.2,N
1545453775.7,286046997.0,Y
1545453795.5,286046998.7,P
1545453815.4,286046998.2,P
1545453835.2,286047011.9,P
1545453855.1,286046998.2,N
1545453856.0,286046998.2,N
1545453875.8,286047001.1,N
1545453895.6,286046998.1,N
1545453915.5,286047001.0,N
1545453935.3,286047000.7,N
1545453955.1,286047000.2,N
1545453975.9,286047001.3,N
1545453995.7,286047000.1,N
1545454015.6,286047000.7,N
1545454035.4,286046998.4,N
1545454055.2,286047000.5,N
1545454075.1,286047000.2,N
1545454076.0,286047000.2,N
1545454095.8,286047004.4,N
1545454115.6,286047003.1,N
1545454135.5,286047001.3,N
1545454155.3,286047000.2,N
1545454175.2,286047000.5,N
1545454195.9,286046998.1,N
1545454215.7,286047000.8,N
1545454235.6,286046997.5,N
1545454255.4,286046995.2,N
1545454275.2,286046993.9,N
1545454295.1,286046992.9,N
1545454296.0,286046992.9,N
1545454315.8,286046993.1,N
1545454335.7,286046994.7,N
1545454355.5,286046994.5,N
1545454375.3,286046992.1,N
1545454395.2,286046993.4,N
1545454415.9,286046995.9,N
1545454435.7,286046993.8,N
1545454455.6,286046995.1,N
1545454475.4,286046994.9,N
1545454495.2,286046997.7,N
1545454515.1,286046999.6,N
1545454516.0,286046999.6,N
1545454535.8,286046996.9,N
1545454555.7,286046997.7,N
1545454575.5,286046999.2,N
1545454595.3,286046998.5,N
1545454615.2,286046998.1,N
1545454635.0,286047000.8,N
1545454635.9,286047000.8,N
1545454655.7,286046999.0,N
1545454675.6,286046999.1,N
1545454695.4,286046999.1,N
1545454715.3,286047001.0,N
1545454735.1,286047000.8,N
1545454736.0,286047000.8,N
1545454755.8,286046998.3,N
1545454775.7,286046999.0,N
1545454795.5,286047001.0,N
